Regional Weather Roundup
Issued by NWS State College, PA

Home | Current Version | Previous Version | Graphics & Text | Print | Product List | Glossary Off
Versions: 1 2 3 4 5 6 7 8 9 10 11 12 13 14 15 16 17 18 19 20 21 22 23 24 25 26 27 28 29 30 31 32 33 34 35 36 37 38 39 40 41 42 43 44 45 46 47 48 49 50

000
ASUS41 KCTP 230503
RWRCTP

REGIONAL WEATHER ROUNDUP
NATIONAL WEATHER SERVICE STATE COLLEGE PA
1200 AM EST MON JAN 23 2017

Note: "fair" indicates few or no clouds below 12,000 feet with no
significant weather and/or obstructions to visibility.

* = STATION THAT DOES NOT REPORT PRECIPITATION /E.G. RAIN...SNOW...ETC/
    THUNDER OR FOG.

PAZ002>004-007>009-013>016-020>023-029>032-230600-
WESTERN PENNSYLVANIA

CITY           SKY/WX    TMP DP  RH WIND       PRES   REMARKS
ERIE           FOG       39  38  96 NE12      29.62S VSB 1/2
MEADVILLE      CLOUDY    51  45  79 E6        29.59R
FRANKLIN*        N/A     48  43  81 SE10      29.61R
NEW CASTLE     CLOUDY    53  46  77 E10       29.57S
BEAVER COUNTY  NOT AVBL
BUTLER*        CLOUDY    48  43  81 E15       29.60S
PITTSBURGH INT LGT RAIN  50  48  93 E9        29.55R
PITTSBURGH     CLOUDY    50  44  80 E7        29.54F
INDIANA*       CLOUDY    48  46  93 E13       29.62F
LATROBE        CLOUDY    48  48 100 N6        29.57F
WASHINGTON CO* CLOUDY    50  46  87 E10       29.53F
$$

PAZ004>006-010>012-017>019-024>028-033>037-041-042-045-046-049>053-230600-
CENTRAL PENNSYLVANIA

CITY           SKY/WX    TMP DP  RH WIND       PRES   REMARKS
BRADFORD       CLOUDY    48  45  89 SE12G21   29.65R
DUBOIS         CLOUDY    47  43  86 E9        29.62S
CLEARFIELD     CLOUDY    45  45 100 E9        29.65S FOG
JOHNSTOWN      LGT RAIN  44  44 100 E14G22    29.58S
ALTOONA        CLOUDY    46  44  93 E10       29.64S
STATE COLLEGE  DRIZZLE   45  45 100 NE7       29.66S
WILLIAMSPORT   CLOUDY    44  43  96 CALM      29.69F FOG
SELINSGROVE    CLOUDY    47  44  90 CALM      29.70F
FT INDIANTOWN  CLOUDY    46  46 100 E7        29.70S
CAPITAL CITY   CLOUDY    48  43  82 E13G22    29.69R
HARRISBURG     CLOUDY    48  46  93 E17       29.69R
YORK           LGT RAIN  48  48 100 E13       29.67S FOG
$$

PAZ038>040-043-044-047-048-054-055-060>062-067>071-230600-
EASTERN PENNSYLVANIA

CITY           SKY/WX    TMP DP  RH WIND       PRES   REMARKS
SCRANTON       CLOUDY    48  44  86 E8        29.73R
MOUNT POCONO   LGT RAIN  41  40  96 E16       29.73F VSB 1/4
ALLENTOWN      CLOUDY    47  40  76 E18G25    29.77R
QUAKERTOWN*    CLOUDY    45  45 100 E13G20    29.75S
READING        CLOUDY    48  44  86 E9G21     29.71S
LANCASTER      CLOUDY    47  45  93 E21G28    29.70S
COATESVILLE    CLOUDY    45  45 100 E22G31    29.71S
POTTSTOWN      CLOUDY    45  41  86 E15G22    29.74S
BLUE BELL      CLOUDY    43  41  93 E13G23    29.73F
DOYLESTOWN     CLOUDY    46  42  86 VRB6      29.75S
WILLOW GROVE   NOT AVBL
NORTH PHILA    CLOUDY    47  43  86 E20G32    29.77R
PHILADELPHIA   LGT RAIN  46  43  89 NE15G25   29.74R
$$




USA.gov is the U.S. government's official web portal to all federal, state and local government web resources and services.